Location: *
(58.7167°N, 26.1833°E)
Time: 15:28:51
(UTC+00:00)

Lacrosse 4 Rocket - Pass Details

Date: 25 August 2019
Orbit: 543 x 616 km, 68.0° (Epoch: 22 September)

Event Time Altitude Azimuth Distance (km) Brightness Sun altitude
Rises 19:07:37 0° 309° (NW) 2,806 7.2 -10.8°
Reaches altitude 10° 19:10:03 10° 319° (NW) 1,891 5.6 -11.0°
Maximum altitude 19:13:55 34° 25° (NNE) 950 2.7 -11.4°
Drops below altitude 10° 19:17:43 10° 91° (E) 1,848 3.6 -11.7°
Enters shadow 19:17:49 - 92° (E) 1,887 3.6 -11.7°
